• En Colombia
  • Lista de países
  • Para 7 días
  • Temperatura del agua
  • El tiempo en el mapa
  • Informadores
  • user-avatar
    Iniciar sesión

    Tiempo cada hora Ríohacha

    Hoy, 6 Diciembre, Viernes

    Tiempo Temperatura Precipitaciones Viento Presión Humedad
    00:00 +27°C° 0 mm 5 mps 758 mmHg 86%
    01:00 +26°C° 0 mm 5 mps 758 mmHg 89%
    02:00 +26°C° 0 mm 5 mps 758 mmHg 89%
    03:00 +26°C° 0 mm 5 mps 758 mmHg 90%
    04:00 +26°C° 0 mm 5 mps 758 mmHg 90%
    05:00 +27°C° 0 mm 5 mps 758 mmHg 89%
    06:00 +27°C° 0 mm 6 mps 759 mmHg 87%
    07:00 +28°C° 0 mm 6 mps 759 mmHg 84%
    08:00 +30°C° 0 mm 6 mps 759 mmHg 77%
    09:00 +32°C° 0 mm 6 mps 759 mmHg 70%
    10:00 +34°C° 0 mm 6 mps 759 mmHg 62%
    11:00 +34°C° 0 mm 6 mps 758 mmHg 59%
    12:00 +35°C° 0 mm 7 mps 758 mmHg 56%
    13:00 +36°C° 0 mm 7 mps 757 mmHg 53%
    14:00 +35°C° 0 mm 6 mps 757 mmHg 54%
    15:00 +35°C° 0 mm 6 mps 757 mmHg 55%
    16:00 +34°C° 0 mm 6 mps 756 mmHg 57%
    17:00 +32°C° 0 mm 6 mps 757 mmHg 63%
    18:00 +30°C° 0 mm 6 mps 757 mmHg 70%
    19:00 +28°C° 0 mm 5 mps 758 mmHg 76%
    20:00 +28°C° 0 mm 5 mps 758 mmHg 79%
    21:00 +27°C° 0 mm 5 mps 759 mmHg 82%
    22:00 +27°C° 0 mm 5 mps 759 mmHg 85%
    23:00 +26°C° 0 mm 5 mps 759 mmHg 88%

    Mañana, 7 Diciembre, Sábado

    Tiempo Temperatura Precipitaciones Viento Presión Humedad
    00:00 +26°C° 0 mm 5 mps 759 mmHg 91%
    01:00 +25°C° 0 mm 5 mps 759 mmHg 94%
    02:00 +25°C° 0 mm 4 mps 758 mmHg 94%
    03:00 +25°C° 0 mm 4 mps 758 mmHg 95%
    04:00 +25°C° 0 mm 4 mps 758 mmHg 95%
    05:00 +26°C° 0 mm 4 mps 758 mmHg 93%
    06:00 +26°C° 0 mm 4 mps 759 mmHg 91%
    07:00 +27°C° 0 mm 4 mps 759 mmHg 88%
    08:00 +29°C° 0 mm 5 mps 759 mmHg 79%
    09:00 +32°C° 0 mm 5 mps 760 mmHg 70%
    10:00 +34°C° 0 mm 5 mps 760 mmHg 61%
    11:00 +34°C° 0 mm 6 mps 759 mmHg 57%
    12:00 +35°C° 0 mm 6 mps 758 mmHg 54%
    13:00 +35°C° 0 mm 6 mps 757 mmHg 51%
    14:00 +35°C° 0 mm 6 mps 757 mmHg 53%
    15:00 +34°C° 0 mm 6 mps 757 mmHg 56%
    16:00 +33°C° 0 mm 6 mps 757 mmHg 59%
    17:00 +30°C° 0 mm 6 mps 757 mmHg 67%
    18:00 +28°C° 0 mm 5 mps 757 mmHg 76%
    19:00 +26°C° 0 mm 5 mps 758 mmHg 85%
    20:00 +26°C° 0 mm 5 mps 758 mmHg 86%
    21:00 +25°C° 0 mm 4 mps 758 mmHg 87%
    22:00 +25°C° 0 mm 4 mps 759 mmHg 88%
    23:00 +23°C° 0 mm 4 mps 759 mmHg 89%

    Pasado mañana, 8 Diciembre, Domingo

    Tiempo Temperatura Precipitaciones Viento Presión Humedad
    00:00 +24°C° 0 mm 3 mps 758 mmHg 91%
    01:00 +24°C° 0 mm 3 mps 758 mmHg 92%
    02:00 +22°C° 0 mm 3 mps 758 mmHg 93%
    03:00 +22°C° 0 mm 3 mps 758 mmHg 93%
    04:00 +23°C° 0 mm 2 mps 758 mmHg 93%
    05:00 +24°C° 0 mm 2 mps 758 mmHg 92%
    06:00 +25°C° 0 mm 2 mps 759 mmHg 90%
    07:00 +25°C° 0 mm 2 mps 759 mmHg 88%
    08:00 +28°C° 0 mm 2 mps 759 mmHg 79%
    09:00 +30°C° 0 mm 3 mps 759 mmHg 69%
    10:00 +33°C° 0 mm 3 mps 760 mmHg 60%
    11:00 +33°C° 0.1 mm 4 mps 759 mmHg 58%
    12:00 +34°C° 0.1 mm 4 mps 758 mmHg 57%
    13:00 +34°C° 0.1 mm 5 mps 757 mmHg 55%
    14:00 +33°C° 0.3 mm 5 mps 757 mmHg 60%
    15:00 +33°C° 0.3 mm 5 mps 757 mmHg 64%
    16:00 +32°C° 0.3 mm 5 mps 756 mmHg 68%
    17:00 +29°C° 0.2 mm 5 mps 757 mmHg 75%
    18:00 +28°C° 0.2 mm 5 mps 757 mmHg 82%
    19:00 +26°C° 0.2 mm 5 mps 758 mmHg 89%
    20:00 +26°C° 0.1 mm 5 mps 758 mmHg 90%
    21:00 +25°C° 0.1 mm 4 mps 758 mmHg 90%
    22:00 +25°C° 0.1 mm 4 mps 759 mmHg 91%
    23:00 +25°C° 0 mm 4 mps 758 mmHg 92%

    9 Diciembre, Lunes

    Tiempo Temperatura Precipitaciones Viento Presión Humedad
    00:00 +24°C° 0 mm 3 mps 758 mmHg 93%
    01:00 +24°C° 0 mm 3 mps 758 mmHg 93%
    02:00 +24°C° 0 mm 3 mps 758 mmHg 94%
    03:00 +24°C° 0 mm 3 mps 758 mmHg 94%
    04:00 +24°C° 0 mm 3 mps 757 mmHg 95%
    05:00 +24°C° 0 mm 3 mps 758 mmHg 93%
    06:00 +25°C° 0 mm 3 mps 758 mmHg 91%
    07:00 +25°C° 0 mm 3 mps 758 mmHg 89%
    08:00 +28°C° 0 mm 4 mps 759 mmHg 80%
    09:00 +30°C° 0 mm 5 mps 759 mmHg 70%
    10:00 +33°C° 0 mm 6 mps 759 mmHg 61%
    11:00 +34°C° 0 mm 6 mps 758 mmHg 57%
    12:00 +34°C° 0 mm 6 mps 758 mmHg 54%
    13:00 +35°C° 0 mm 7 mps 757 mmHg 50%
    14:00 +34°C° 0 mm 7 mps 757 mmHg 52%
    15:00 +34°C° 0 mm 7 mps 756 mmHg 55%
    16:00 +33°C° 0 mm 7 mps 756 mmHg 57%
    17:00 +30°C° 0 mm 6 mps 756 mmHg 63%
    18:00 +29°C° 0 mm 6 mps 757 mmHg 69%
    19:00 +27°C° 0 mm 5 mps 757 mmHg 75%
    20:00 +27°C° 0 mm 6 mps 757 mmHg 78%
    21:00 +26°C° 0 mm 6 mps 758 mmHg 82%
    22:00 +26°C° 0 mm 6 mps 758 mmHg 85%
    23:00 +24°C° 0 mm 6 mps 758 mmHg 88%

    10 Diciembre, Martes

    Tiempo Temperatura Precipitaciones Viento Presión Humedad
    00:00 +25°C° 0 mm 5 mps 758 mmHg 91%
    01:00 +25°C° 0 mm 5 mps 757 mmHg 94%
    02:00 +23°C° 0 mm 5 mps 757 mmHg 93%
    03:00 +23°C° 0 mm 6 mps 757 mmHg 93%
    04:00 +23°C° 0 mm 6 mps 757 mmHg 93%
    05:00 +24°C° 0 mm 6 mps 757 mmHg 91%
    06:00 +25°C° 0 mm 5 mps 758 mmHg 88%
    07:00 +26°C° 0 mm 5 mps 758 mmHg 86%
    08:00 +28°C° 0 mm 6 mps 759 mmHg 76%
    09:00 +30°C° 0 mm 6 mps 759 mmHg 67%
    10:00 +33°C° 0 mm 7 mps 759 mmHg 57%
    11:00 +34°C° 0 mm 7 mps 758 mmHg 55%
    12:00 +34°C° 0 mm 7 mps 758 mmHg 52%
    13:00 +35°C° 0 mm 7 mps 757 mmHg 50%
    14:00 +34°C° 0 mm 7 mps 756 mmHg 53%
    15:00 +34°C° 0 mm 7 mps 756 mmHg 55%
    16:00 +33°C° 0 mm 7 mps 756 mmHg 58%
    17:00 +30°C° 0 mm 6 mps 756 mmHg 65%
    18:00 +28°C° 0 mm 6 mps 756 mmHg 73%
    19:00 +27°C° 0 mm 5 mps 757 mmHg 80%
    20:00 +26°C° 0 mm 5 mps 757 mmHg 83%
    21:00 +26°C° 0 mm 5 mps 758 mmHg 85%
    22:00 +25°C° 0 mm 5 mps 758 mmHg 87%
    23:00 +25°C° 0.1 mm 5 mps 758 mmHg 89%

    11 Diciembre, Miércoles

    Tiempo Temperatura Precipitaciones Viento Presión Humedad
    00:00 +25°C° 0.1 mm 5 mps 758 mmHg 92%
    01:00 +25°C° 0.1 mm 5 mps 758 mmHg 94%
    02:00 +23°C° 0 mm 4 mps 758 mmHg 94%
    03:00 +23°C° 0 mm 4 mps 757 mmHg 94%
    04:00 +23°C° 0 mm 4 mps 757 mmHg 94%
    05:00 +25°C° 0 mm 4 mps 758 mmHg 92%
    06:00 +25°C° 0 mm 4 mps 758 mmHg 90%
    07:00 +26°C° 0 mm 4 mps 758 mmHg 87%
    08:00 +28°C° 0 mm 5 mps 759 mmHg 78%
    09:00 +30°C° 0 mm 6 mps 759 mmHg 68%
    10:00 +33°C° 0 mm 6 mps 759 mmHg 58%
    11:00 +34°C° 0 mm 6 mps 758 mmHg 55%
    12:00 +35°C° 0 mm 6 mps 758 mmHg 52%
    13:00 +35°C° 0 mm 6 mps 757 mmHg 49%
    14:00 +35°C° 0 mm 6 mps 756 mmHg 50%
    15:00 +34°C° 0 mm 6 mps 756 mmHg 51%
    16:00 +33°C° 0 mm 6 mps 756 mmHg 51%
    17:00 +30°C° 0.1 mm 6 mps 756 mmHg 61%
    18:00 +28°C° 0.1 mm 6 mps 756 mmHg 70%
    19:00 +26°C° 0.1 mm 5 mps 757 mmHg 80%
    20:00 +26°C° 0.1 mm 5 mps 757 mmHg 82%
    21:00 +26°C° 0.1 mm 5 mps 758 mmHg 85%
    22:00 +25°C° 0.1 mm 4 mps 758 mmHg 87%
    23:00 +25°C° 0 mm 4 mps 758 mmHg 89%
    Mostrar más